Time,TemperatureF,DewpointF,PressureIn,WindDirection,WindDirectionDegrees,WindSpeedMPH,WindSpeedGustMPH,Humidity,HourlyPrecipIn,Conditions,Clouds,dailyrainin,SolarRadiationWatts/m^2,SoftwareType,DateUTC
2013-03-31 00:00:00,34.0,26.0,30.07,SSW,211,2.0,-999.0,74,-99.99,,,-99.99,0.020000,,2013-03-31 04:00:00,
2013-03-31 00:53:00,34.0,26.0,30.07,SSW,211,2.0,-999.0,74,-99.99,,,-99.99,0.020000,,2013-03-31 04:53:00,
2013-03-31 04:00:00,34.0,26.0,30.00,SSE,152,5.0,-999.0,71,-99.99,,,-99.99,0.070000,,2013-03-31 08:00:00,
2013-03-31 04:52:00,34.0,26.0,30.00,SSE,152,5.0,-999.0,71,-99.99,,,-99.99,0.070000,,2013-03-31 08:52:00,
2013-03-31 05:00:00,34.0,25.0,29.98,SSE,160,4.0,-999.0,70,-99.99,,,-99.99,0.040000,,2013-03-31 09:00:00,
2013-03-31 05:53:00,34.0,25.0,29.98,SSE,160,4.0,-999.0,70,-99.99,,,-99.99,0.040000,,2013-03-31 09:53:00,
2013-03-31 06:00:00,34.0,25.0,29.95,South,175,5.0,-999.0,67,-99.99,,,-99.99,0.040000,,2013-03-31 10:00:00,
2013-03-31 06:53:00,34.0,25.0,29.95,South,175,5.0,-999.0,67,-99.99,,,-99.99,0.040000,,2013-03-31 10:53:00,
2013-03-31 07:00:00,36.0,25.0,29.93,SSE,156,6.0,-999.0,66,-99.99,,,-99.99,0.740000,,2013-03-31 11:00:00,
2013-03-31 07:53:00,36.0,25.0,29.93,SSE,156,6.0,-999.0,66,-99.99,,,-99.99,0.740000,,2013-03-31 11:53:00,
2013-03-31 08:00:00,38.0,25.0,29.92,SSE,148,5.0,-999.0,60,-99.99,,,-99.99,35.639999,,2013-03-31 12:00:00,
2013-03-31 08:53:00,38.0,25.0,29.92,SSE,148,5.0,-999.0,60,-99.99,,,-99.99,35.639999,,2013-03-31 12:53:00,
2013-03-31 09:00:00,41.0,25.0,29.89,SSE,147,9.0,-999.0,53,-99.99,,,-99.99,131.300003,,2013-03-31 13:00:00,
2013-03-31 09:53:00,41.0,25.0,29.89,SSE,147,9.0,-999.0,53,-99.99,,,-99.99,131.300003,,2013-03-31 13:53:00,
2013-03-31 10:00:00,43.0,26.0,29.87,SSE,153,10.0,-999.0,51,-99.99,,,-99.99,238.699997,,2013-03-31 14:00:00,
2013-03-31 10:53:00,43.0,26.0,29.87,SSE,153,10.0,-999.0,51,-99.99,,,-99.99,238.699997,,2013-03-31 14:53:00,
2013-03-31 11:00:00,46.0,28.0,29.85,SE,143,8.0,-999.0,48,-99.99,,,-99.99,325.799988,,2013-03-31 15:00:00,
2013-03-31 11:54:00,46.0,28.0,29.85,SE,143,8.0,-999.0,48,-99.99,,,-99.99,325.799988,,2013-03-31 15:54:00,
2013-03-31 12:00:00,52.0,29.0,29.82,SSE,163,10.0,-999.0,40,-99.99,,,-99.99,454.299988,,2013-03-31 16:00:00,
2013-03-31 12:54:00,52.0,29.0,29.82,SSE,163,10.0,-999.0,40,-99.99,,,-99.99,454.299988,,2013-03-31 16:54:00,
2013-03-31 13:00:00,53.0,31.0,29.80,South,180,17.0,-999.0,43,-99.99,,,-99.99,427.100006,,2013-03-31 17:00:00,
2013-03-31 13:52:00,53.0,31.0,29.80,South,180,17.0,-999.0,43,-99.99,,,-99.99,427.100006,,2013-03-31 17:52:00,
2013-03-31 14:00:00,52.0,32.0,29.78,South,178,17.0,-999.0,45,-99.99,,,-99.99,245.000000,,2013-03-31 18:00:00,
2013-03-31 14:53:00,52.0,32.0,29.78,South,178,17.0,-999.0,45,-99.99,,,-99.99,245.000000,,2013-03-31 18:53:00,
2013-03-31 20:00:00,42.0,42.0,29.72,SSE,153,6.0,-999.0,100,-99.99,,,-99.99,2.520000,,2013-04-01 00:00:00,
2013-03-31 20:53:00,42.0,42.0,29.72,SSE,153,6.0,-999.0,100,-99.99,,,-99.99,2.520000,,2013-04-01 00:53:00,
2013-03-31 21:00:00,41.0,41.0,29.72,SSE,166,6.0,-999.0,100,-99.99,,,-99.99,0.000000,,2013-04-01 01:00:00,
2013-03-31 21:53:00,41.0,41.0,29.72,SSE,166,6.0,-999.0,100,-99.99,,,-99.99,0.000000,,2013-04-01 01:53:00,
2013-03-31 22:00:00,41.0,41.0,29.71,SSE,167,6.0,-999.0,100,-99.99,,,-99.99,0.000000,,2013-04-01 02:00:00,
2013-03-31 22:53:00,41.0,41.0,29.71,SSE,167,6.0,-999.0,100,-99.99,,,-99.99,0.000000,,2013-04-01 02:53:00,
2013-03-31 23:00:00,41.0,40.0,29.70,South,178,5.0,-999.0,93,-99.99,,,-99.99,0.020000,,2013-04-01 03:00:00,
2013-03-31 23:53:00,41.0,40.0,29.70,South,178,5.0,-999.0,93,-99.99,,,-99.99,0.020000,,2013-04-01 03:53:00,